Salon, France

5:29 PM CEST on September 24, 2017 (GMT +0200)
Salon Air Base

Weather History for LFMY - October, 2012

Change the Weather History Date:

Thursday, October 18, 2012

  Actual Average (LFML) Record (LFML)
Temperature  
Mean Temperature 68 °F -  
Max Temperature 75 °F 68 °F 79 °F (2014)
Min Temperature 60 °F 54 °F 44 °F (2008)
Cooling Degree Days 2    
Growing Degree Days 18 (Base 50)    
Moisture  
Dew Point 53 °F    
Average Humidity 61    
Maximum Humidity 77    
Minimum Humidity 44    
Precipitation  
Precipitation 0.00 in - - ()
Sea Level Pressure  
Sea Level Pressure 30.01 in    
Wind  
Wind Speed 15 mph ()    
Max Wind Speed 23 mph    
Max Gust Speed 38 mph    
Visibility 6.2 miles    
Events      
Averages and records for this station are not official NWS values.
T = Trace of Precipitation, MM = Missing Value Source: Averaged Metar Reports

Daily Weather History Graph

Daily Weather History Graph

Search for Another Location

Airport or City:

Trip Planner

Search our weather history database for the weather conditions in past years. The results will help you decide how hot, cold, wet, or windy it might be!

Date:

Astronomy

Oct. 18, 2012 Rise Set
Actual Time 7:57 AM CEST 6:50 PM CEST
Civil Twilight 7:28 AM CEST 7:19 PM CEST
Nautical Twilight 6:55 AM CEST 7:53 PM CEST
Astronomical Twilight 6:22 AM CEST 8:26 PM CEST
Moon 11:28 AM CEST (10/18) 9:02 PM CEST (10/18)
Length of Visible Light 11h 51m
Length of Day
10h 53m
Waxing Crescent, 12% of the Moon is Illuminated
Oct 18
Waxing Crescent
Oct 22
First Quarter
Oct 29
Full
Nov 7
Last Quarter
Nov 13
New

Hourly Weather History & Observations

Time (CEST) Temp. Dew Point Humidity Pressure Visibility Wind Dir Wind Speed Gust Speed Precip Events Conditions
12:00 AM 60.8 °F 53.6 °F 77% 30.04 in 6.2 mi East 4.6 mph - N/A   Unknown
12:30 AM 62.6 °F 53.6 °F 72% 30.04 in 6.2 mi ESE 9.2 mph - N/A   Unknown
1:00 AM 62.6 °F 55.4 °F 77% 30.04 in 6.2 mi ESE 13.8 mph - N/A   Unknown
1:30 AM 62.6 °F 55.4 °F 77% 30.04 in 6.2 mi ESE 11.5 mph - N/A   Unknown
2:00 AM 62.6 °F 55.4 °F 77% 30.04 in 6.2 mi ESE 9.2 mph - N/A   Unknown
2:30 AM 62.6 °F 53.6 °F 72% 30.04 in 6.2 mi ESE 9.2 mph - N/A   Unknown
3:00 AM 62.6 °F 55.4 °F 77% 30.04 in 6.2 mi ESE 8.1 mph - N/A   Unknown
3:30 AM 62.6 °F 55.4 °F 77% 30.01 in 6.2 mi ESE 13.8 mph - N/A   Unknown
4:00 AM 62.6 °F 53.6 °F 72% 30.01 in 6.2 mi ESE 16.1 mph - N/A   Unknown
4:30 AM 64.4 °F 55.4 °F 73% 30.01 in 6.2 mi ESE 16.1 mph - N/A   Unknown
5:00 AM 64.4 °F 53.6 °F 68% 30.01 in 6.2 mi East 18.4 mph - N/A   Unknown
5:30 AM 64.4 °F 53.6 °F 68% 30.01 in 6.2 mi ESE 18.4 mph - N/A   Unknown
6:00 AM 64.4 °F 55.4 °F 73% 30.01 in 6.2 mi ESE 16.1 mph - N/A   Unknown
6:30 AM 64.4 °F 53.6 °F 68% 30.01 in 6.2 mi ESE 17.3 mph - N/A   Unknown
7:00 AM 64.4 °F 53.6 °F 68% 30.01 in 6.2 mi ESE 18.4 mph - N/A   Unknown
7:30 AM 64.4 °F 53.6 °F 68% 30.01 in 6.2 mi ESE 17.3 mph - N/A   Unknown
8:00 AM 64.4 °F 53.6 °F 68% 30.01 in 6.2 mi ESE 16.1 mph - N/A   Unknown
8:30 AM 64.4 °F 53.6 °F 68% 30.01 in 6.2 mi East 15.0 mph - N/A   Unknown
9:00 AM 64.4 °F 53.6 °F 68% 30.01 in 6.2 mi East 17.3 mph - N/A   Unknown
9:30 AM 66.2 °F 53.6 °F 64% 30.01 in 6.2 mi East 18.4 mph 33.4 mph N/A   Unknown
10:00 AM 66.2 °F 53.6 °F 64% 30.01 in 6.2 mi East 19.6 mph - N/A   Unknown
10:30 AM 68.0 °F 53.6 °F 60% 30.01 in 6.2 mi East 18.4 mph - N/A   Unknown
11:00 AM 69.8 °F 53.6 °F 56% 30.01 in 6.2 mi East 21.9 mph - N/A   Unknown
11:30 AM 69.8 °F 53.6 °F 56% 30.04 in 6.2 mi ESE 17.3 mph - N/A   Unknown
12:00 PM 69.8 °F 53.6 °F 56% 30.04 in 6.2 mi East 20.7 mph - N/A   Unknown
12:30 PM 71.6 °F 53.6 °F 53% 30.01 in 6.2 mi East 23.0 mph 34.5 mph N/A   Unknown
1:00 PM 73.4 °F 53.6 °F 50% 30.01 in 6.2 mi East 23.0 mph - N/A   Unknown
1:30 PM 73.4 °F 51.8 °F 47% 30.01 in 6.2 mi East 23.0 mph - N/A   Unknown
2:00 PM 73.4 °F 53.6 °F 50% 29.98 in 6.2 mi East 23.0 mph 36.8 mph N/A   Unknown
2:30 PM 75.2 °F 51.8 °F 44% 29.98 in 6.2 mi East 23.0 mph - N/A   Unknown
3:00 PM 75.2 °F 51.8 °F 44% 29.98 in 6.2 mi East 21.9 mph - N/A   Unknown
3:30 PM 75.2 °F 53.6 °F 47% 29.98 in 6.2 mi East 19.6 mph - N/A   Unknown
4:00 PM 75.2 °F 51.8 °F 44% 29.98 in 6.2 mi East 21.9 mph - N/A   Unknown
4:30 PM 73.4 °F 51.8 °F 47% 29.95 in 6.2 mi East 23.0 mph - N/A   Unknown
5:00 PM 71.6 °F 51.8 °F 50% 29.95 in 6.2 mi East 19.6 mph 32.2 mph N/A   Unknown
5:30 PM 71.6 °F 51.8 °F 50% 29.98 in 6.2 mi East 23.0 mph 35.7 mph N/A   Unknown
6:00 PM 69.8 °F 51.8 °F 53% 29.98 in 6.2 mi East 23.0 mph 35.7 mph N/A   Unknown
6:30 PM 69.8 °F 53.6 °F 56% 29.98 in 6.2 mi East 23.0 mph 35.7 mph N/A   Unknown
7:00 PM 68.0 °F 51.8 °F 56% 29.98 in 6.2 mi East 23.0 mph 35.7 mph N/A   Unknown
7:30 PM 68.0 °F 51.8 °F 56% 29.98 in 6.2 mi East 21.9 mph 35.7 mph N/A   Unknown
8:00 PM 68.0 °F 51.8 °F 56% 30.01 in 6.2 mi East 23.0 mph 38.0 mph N/A   Unknown
8:30 PM 66.2 °F 51.8 °F 60% 30.01 in 6.2 mi East 20.7 mph - N/A   Unknown
9:00 PM 66.2 °F 51.8 °F 60% 30.01 in 6.2 mi East 21.9 mph 34.5 mph N/A   Unknown
9:30 PM 66.2 °F 51.8 °F 60% 30.01 in 6.2 mi East 20.7 mph 32.2 mph N/A   Unknown
10:00 PM 66.2 °F 51.8 °F 60% 30.01 in 6.2 mi East 21.9 mph 35.7 mph N/A   Unknown
10:30 PM 66.2 °F 50.0 °F 56% 30.01 in 6.2 mi East 20.7 mph 32.2 mph N/A   Unknown
11:00 PM 68.0 °F 50.0 °F 52% 30.04 in 6.2 mi East 18.4 mph - N/A   Unknown
11:30 PM 68.0 °F 50.0 °F 52% 30.04 in 6.2 mi East 18.4 mph 32.2 mph N/A   Unknown